User: anonymous   Login
Location: Nitra
(0.0000°N, 18.0833°E)
Time: 02:40:46
(UTC+02:00)
Language:

AO-73 - Orbit

View from above orbital plane
View from above orbital plane
View from above satellite
View from above satellite

Ground track
Ground track

The orbit data is extracted from the following two-line orbital elements,

1 39444U 13066AE  24201.46378311  .00010491  00000-0  99925-3 0  9994
2 39444  97.7200 159.9254 0048626  35.9251 324.5221 14.92666159574922
Epoch (UTC): 19 July 2024 11:07:50
Eccentricity: 0.0048626
inclination: 97.7200°
perigee height: 556 km
apogee height: 623 km
right ascension of ascending node: 159.9254°
argument of perigee: 35.9251°
revolutions per day: 14.92666159
mean anomaly at epoch: 324.5221°
orbit number at epoch: 57492

The dashed part of the orbit path shows where the satellite is in the earth's shadow,  

DLR